Location: Caltech
(34.1382°N, 118.1253°W)
Time: 07:08:59
(UTC-07:00)

JAS-2 - Visible Passes

Search period start: 01 September 2015 00:00
Search period end: 11 September 2015 00:00
Orbit: 801 x 1321 km, 98.5° (Epoch: 31 August)

Date Brightness Start Highest point End Pass type
(mag) Time Alt. Az. Time Alt. Az. Time Alt. Az.
01 Sep 11.5 02:43:30 10° NE 02:48:03 20° E 02:48:58 19° E visible
01 Sep 9.8 04:27:02 10° N 04:33:45 55° WNW 04:35:26 43° WSW visible
02 Sep 10.0 03:32:09 10° NNE 03:38:46 54° E 03:39:32 51° SE visible
02 Sep 10.9 05:18:15 10° NNW 05:23:18 22° WNW 05:26:00 16° W visible
03 Sep 11.6 02:38:57 10° NE 02:43:02 18° E 02:43:38 18° E visible
03 Sep 9.6 04:22:12 10° N 04:28:51 59° WNW 04:30:06 49° WSW visible
04 Sep 10.1 03:27:24 10° NNE 03:33:48 49° E 03:34:12 49° ESE visible
04 Sep 10.8 05:13:19 10° NNW 05:18:25 23° WNW 05:20:40 18° W visible
05 Sep 11.7 02:34:28 10° NE 02:38:00 16° E 02:38:17 16° E visible
05 Sep 9.5 04:17:21 10° N 04:23:55 63° WNW 04:24:45 57° WSW visible
06 Sep 10.3 03:22:38 10° NNE 03:28:49 45° E 03:28:51 45° E visible
06 Sep 10.6 05:08:23 10° NNW 05:13:32 24° WNW 05:15:19 21° W visible
07 Sep 11.9 02:30:03 10° ENE 02:32:56 14° E 02:32:56 14° E visible
07 Sep 9.3 04:12:30 10° N 04:18:59 67° WNW 04:19:24 65° W visible
08 Sep 10.5 03:17:53 10° NNE 03:23:29 40° E 03:23:29 40° E visible
08 Sep 10.5 05:03:27 10° NNW 05:08:38 25° WNW 05:09:57 23° W visible
09 Sep 12.0 02:25:47 10° ENE 02:27:34 12° E 02:27:34 12° E visible
09 Sep 9.3 04:07:39 10° N 04:14:03 73° WNW 04:14:03 73° WNW visible
10 Sep 10.7 03:13:08 10° NNE 03:18:08 36° E 03:18:08 36° E visible
10 Sep 10.4 04:58:31 10° N 05:03:44 27° WNW 05:04:36 26° W visible
